contact:dominique.lefevre@mio.osupytheas.fr, maurice.libes@osupytheas.fr, didier.mallarino@osupytheas.fr
Project:EMSO http://www.emso-fr.org/EMSO-France
Depth: 2436.0 m
Title:EMSO Ligure Ouest : Data MII capteur AQUADOPP
Date,Latitude,Longitude,X_East,Y_North,Z_Up,Amplitude_X,Amplitude_Y,Amplitude_Z,Batterie,SoundSpeed,Heading,Pitch,Roll,Pressure,TIS,Speed,Direction
, degrees North, degrees East, m.s-1, m.s-1,m.s-1, 1, 1, 1, Volt, m.s-1, degree, degree, degree, dbar, degree_C, m.s-1, degree
2020-07-31T00:04:03,42.805,6.029,-0.044,0.01,-0.026,104.0,106.0,100.0,13.4,1505.3,327.0,-0.7,1.8,2470.372,13.31,0.045,282.8
2020-07-31T00:07:03,42.805,6.029,-0.064,0.026,-0.009,104.0,106.0,100.0,13.3,1505.3,324.5,-0.7,1.8,2470.393,13.31,0.069,292.1
2020-07-31T00:10:03,42.805,6.029,-0.06,0.001,-0.027,103.0,107.0,100.0,13.3,1505.3,324.4,-0.7,1.8,2470.382,13.32,0.06,271.0
2020-07-31T00:13:03,42.805,6.029,-0.043,0.002,-0.011,104.0,106.0,101.0,13.4,1505.3,324.3,-0.7,1.9,2470.35,13.32,0.043,272.7
2020-07-31T00:16:03,42.805,6.029,-0.055,0.02,0.013,104.0,106.0,101.0,13.4,1505.3,323.3,-0.7,1.8,2470.382,13.32,0.058,290.0
2020-07-31T00:19:03,42.805,6.029,-0.073,0.005,-0.038,104.0,105.0,101.0,13.4,1505.3,326.7,-0.8,1.8,2470.333,13.32,0.073,273.9
2020-07-31T00:22:03,42.805,6.029,-0.041,0.018,0.002,103.0,108.0,101.0,13.3,1505.3,324.2,-0.7,1.8,2470.379,13.32,0.044,293.7
2020-07-31T00:25:03,42.805,6.029,-0.077,0.006,-0.014,102.0,106.0,101.0,13.4,1505.3,323.7,-0.7,1.8,2470.332,13.33,0.077,274.5
2020-07-31T00:28:03,42.805,6.029,-0.033,0.02,-0.007,103.0,107.0,100.0,13.3,1505.3,325.6,-0.7,1.8,2470.327,13.33,0.038,301.2
2020-07-31T00:31:03,42.805,6.029,-0.058,0.021,0.007,103.0,106.0,100.0,13.3,1505.3,327.4,-0.7,1.8,2470.369,13.33,0.061,289.9
2020-07-31T00:34:03,42.805,6.029,-0.041,0.007,-0.008,104.0,107.0,101.0,13.4,1505.3,326.9,-0.7,1.8,2470.354,13.33,0.041,279.7
2020-07-31T00:37:03,42.805,6.029,-0.06,-0.006,0.016,105.0,107.0,101.0,13.4,1505.3,327.8,-0.7,1.8,2470.361,13.33,0.06,264.3
2020-07-31T00:40:03,42.805,6.029,-0.06,0.002,0.021,104.0,107.0,101.0,13.4,1505.3,327.2,-0.7,1.9,2470.363,13.33,0.06,271.9
2020-07-31T00:43:03,42.805,6.029,-0.069,0.003,-0.056,102.0,107.0,101.0,13.4,1505.3,324.1,-0.7,1.8,2470.349,13.33,0.069,272.5
2020-07-31T00:46:03,42.805,6.029,-0.069,0.018,-0.014,103.0,107.0,100.0,13.4,1505.3,325.5,-0.7,1.8,2470.345,13.33,0.071,284.6
2020-07-31T00:49:03,42.805,6.029,-0.06,0.001,-0.024,105.0,107.0,101.0,13.4,1505.3,327.6,-0.7,1.9,2470.374,13.33,0.06,271.0
2020-07-31T00:52:03,42.805,6.029,-0.053,0.015,-0.053,103.0,106.0,101.0,13.3,1505.3,326.9,-0.7,1.8,2470.373,13.33,0.055,285.8
2020-07-31T00:55:03,42.805,6.029,-0.056,-0.032,-0.017,103.0,106.0,101.0,13.4,1505.3,327.7,-0.7,1.8,2470.338,13.33,0.064,240.3
2020-07-31T00:58:03,42.805,6.029,-0.075,0.017,0.01,103.0,106.0,101.0,13.4,1505.3,323.0,-0.7,1.8,2470.396,13.33,0.076,282.8
2020-07-31T01:04:03,42.805,6.029,-0.066,0.018,-0.008,105.0,106.0,103.0,13.4,1505.3,326.0,-0.7,1.9,2470.416,13.31,0.068,285.3
2020-07-31T01:07:03,42.805,6.029,-0.063,0.012,-0.016,104.0,108.0,101.0,13.4,1505.3,325.5,-0.7,1.8,2470.367,13.31,0.064,280.8
2020-07-31T01:10:03,42.805,6.029,-0.083,0.029,-0.008,105.0,107.0,101.0,13.4,1505.3,324.8,-0.7,1.8,2470.409,13.32,0.087,289.3
2020-07-31T01:13:03,42.805,6.029,-0.056,0.003,-0.02,103.0,105.0,101.0,13.3,1505.3,326.9,-0.7,1.8,2470.388,13.32,0.056,273.1
2020-07-31T01:16:03,42.805,6.029,-0.049,0.014,-0.012,104.0,106.0,102.0,13.4,1505.3,325.7,-0.7,1.8,2470.393,13.32,0.05,285.9
2020-07-31T01:19:03,42.805,6.029,-0.05,0.001,-0.035,104.0,106.0,101.0,13.4,1505.3,326.6,-0.7,1.8,2470.376,13.32,0.05,271.1
2020-07-31T01:22:03,42.805,6.029,-0.061,0.009,-0.023,104.0,106.0,101.0,13.3,1505.3,323.1,-0.7,1.8,2470.395,13.33,0.061,278.4
2020-07-31T01:25:03,42.805,6.029,-0.062,0.0,-0.025,103.0,107.0,101.0,13.4,1505.3,324.5,-0.7,1.8,2470.408,13.33,0.061,270.0
2020-07-31T01:28:03,42.805,6.029,-0.049,-0.006,-0.016,104.0,106.0,101.0,13.4,1505.3,327.1,-0.7,1.8,2470.372,13.33,0.049,263.0
2020-07-31T01:31:03,42.805,6.029,-0.055,0.005,-0.022,104.0,107.0,100.0,13.4,1505.3,323.1,-0.7,1.8,2470.373,13.33,0.055,275.2
2020-07-31T01:34:03,42.805,6.029,-0.075,0.0,-0.048,103.0,107.0,101.0,13.4,1505.3,326.5,-0.7,1.9,2470.422,13.33,0.074,270.0
2020-07-31T01:37:03,42.805,6.029,-0.069,0.002,-0.035,104.0,105.0,102.0,13.4,1505.3,324.3,-0.7,1.8,2470.378,13.33,0.069,271.7
2020-07-31T01:40:03,42.805,6.029,-0.023,0.002,0.024,103.0,106.0,101.0,13.4,1505.3,327.7,-0.7,1.8,2470.401,13.33,0.023,275.0
2020-07-31T01:43:03,42.805,6.029,-0.072,0.021,-0.038,104.0,106.0,102.0,13.4,1505.3,326.8,-0.6,1.8,2470.365,13.33,0.074,286.3
2020-07-31T01:46:03,42.805,6.029,-0.041,0.004,-0.004,105.0,107.0,101.0,13.4,1505.3,323.4,-0.7,1.8,2470.423,13.33,0.041,275.6
2020-07-31T01:49:03,42.805,6.029,-0.061,0.004,-0.01,103.0,105.0,102.0,13.4,1505.3,322.9,-0.7,1.8,2470.399,13.33,0.061,273.7
2020-07-31T01:52:03,42.805,6.029,-0.039,0.007,0.005,104.0,106.0,101.0,13.3,1505.3,323.0,-0.7,1.8,2470.389,13.33,0.039,280.2
2020-07-31T01:55:03,42.805,6.029,-0.009,0.022,0.01,104.0,106.0,102.0,13.4,1505.3,327.9,-0.7,1.8,2470.376,13.33,0.023,337.8
2020-07-31T01:58:03,42.805,6.029,-0.055,0.016,0.015,104.0,106.0,101.0,13.4,1505.3,327.8,-0.7,1.8,2470.367,13.33,0.057,286.2
2020-07-31T02:04:03,42.805,6.029,-0.041,-0.004,-0.026,104.0,106.0,100.0,13.4,1505.3,324.8,-0.8,1.8,2470.445,13.31,0.041,264.4
2020-07-31T02:07:03,42.805,6.029,-0.031,-0.001,0.037,104.0,107.0,101.0,13.3,1505.3,323.6,-0.7,1.8,2470.427,13.31,0.031,268.2
2020-07-31T02:10:03,42.805,6.029,-0.049,0.009,-0.025,104.0,105.0,103.0,13.4,1505.3,327.7,-0.7,1.8,2470.375,13.32,0.049,280.4
2020-07-31T02:13:03,42.805,6.029,-0.04,0.008,0.006,104.0,106.0,101.0,13.4,1505.3,325.8,-0.7,1.8,2470.426,13.32,0.04,281.3
2020-07-31T02:16:03,42.805,6.029,-0.061,0.007,-0.012,104.0,106.0,101.0,13.4,1505.3,328.2,-0.7,1.8,2470.418,13.32,0.061,276.5
2020-07-31T02:19:03,42.805,6.029,-0.067,-0.002,-0.049,103.0,107.0,102.0,13.4,1505.3,322.7,-0.7,1.8,2470.424,13.32,0.067,268.3
2020-07-31T02:22:03,42.805,6.029,-0.031,-0.02,0.0,104.0,104.0,101.0,13.4,1505.3,326.4,-0.7,1.8,2470.37,13.32,0.036,237.2
2020-07-31T02:25:03,42.805,6.029,-0.033,0.005,-0.003,104.0,106.0,100.0,13.4,1505.3,324.7,-0.7,1.8,2470.41,13.33,0.033,278.6
2020-07-31T02:28:03,42.805,6.029,-0.043,0.008,-0.031,105.0,106.0,101.0,13.3,1505.3,325.3,-0.7,1.8,2470.39,13.33,0.043,280.5
2020-07-31T02:31:03,42.805,6.029,-0.041,0.01,0.0,104.0,106.0,102.0,13.4,1505.3,325.8,-0.7,1.8,2470.443,13.33,0.042,283.7
2020-07-31T02:34:03,42.805,6.029,-0.072,0.015,0.014,102.0,107.0,102.0,13.4,1505.3,325.2,-0.7,1.8,2470.398,13.33,0.073,281.8
2020-07-31T02:37:03,42.805,6.029,-0.049,0.005,-0.014,104.0,106.0,100.0,13.4,1505.3,323.8,-0.7,1.8,2470.431,13.33,0.049,275.8
2020-07-31T02:40:03,42.805,6.029,-0.083,0.002,-0.039,103.0,106.0,102.0,13.4,1505.3,326.3,-0.7,1.8,2470.411,13.33,0.083,271.4
2020-07-31T02:43:03,42.805,6.029,-0.054,0.01,0.027,104.0,106.0,102.0,13.4,1505.3,326.3,-0.7,1.8,2470.444,13.33,0.054,280.5
2020-07-31T02:46:03,42.805,6.029,-0.059,0.008,-0.009,103.0,106.0,101.0,13.4,1505.3,324.3,-0.7,1.8,2470.402,13.33,0.059,277.7
2020-07-31T02:49:03,42.805,6.029,-0.062,0.023,-0.035,104.0,106.0,100.0,13.4,1505.3,327.8,-0.8,1.9,2470.419,13.33,0.066,290.3
2020-07-31T02:52:03,42.805,6.029,-0.044,0.0,-0.02,105.0,108.0,102.0,13.4,1505.3,326.5,-0.7,1.8,2470.441,13.33,0.044,270.0
2020-07-31T02:55:03,42.805,6.029,-0.054,0.013,-0.008,102.0,107.0,102.0,13.3,1505.3,327.8,-0.7,1.8,2470.412,13.33,0.055,283.5
2020-07-31T02:58:03,42.805,6.029,-0.041,0.0,-0.026,104.0,106.0,101.0,13.4,1505.3,324.9,-0.7,1.8,2470.428,13.33,0.041,270.0
2020-07-31T03:04:03,42.805,6.029,-0.025,-0.006,-0.014,103.0,106.0,101.0,13.4,1505.3,324.7,-0.7,1.8,2470.466,13.31,0.025,256.5
2020-07-31T03:07:03,42.805,6.029,-0.06,-0.008,-0.026,104.0,106.0,102.0,13.4,1505.3,322.9,-0.7,1.9,2470.466,13.31,0.06,262.4
2020-07-31T03:10:03,42.805,6.029,-0.048,-0.002,0.007,103.0,107.0,101.0,13.4,1505.3,324.3,-0.7,1.9,2470.462,13.32,0.048,267.6
2020-07-31T03:13:03,42.805,6.029,-0.04,0.003,-0.016,105.0,106.0,101.0,13.4,1505.3,324.0,-0.7,1.8,2470.456,13.32,0.04,274.3
2020-07-31T03:16:03,42.805,6.029,-0.056,0.01,-0.032,102.0,104.0,101.0,13.4,1505.3,326.1,-0.7,1.8,2470.414,13.32,0.056,280.1
2020-07-31T03:19:03,42.805,6.029,-0.04,-0.003,0.012,104.0,106.0,101.0,13.4,1505.3,327.4,-0.7,1.8,2470.421,13.32,0.04,265.7
2020-07-31T03:22:03,42.805,6.029,-0.085,0.007,-0.046,104.0,106.0,101.0,13.4,1505.3,326.9,-0.7,1.8,2470.479,13.33,0.085,274.7
2020-07-31T03:25:03,42.805,6.029,-0.045,0.01,-0.005,104.0,107.0,101.0,13.4,1505.3,325.0,-0.7,1.8,2470.423,13.33,0.046,282.5
2020-07-31T03:28:03,42.805,6.029,-0.068,0.004,-0.013,103.0,107.0,100.0,13.4,1505.3,323.5,-0.7,1.9,2470.428,13.33,0.068,273.4
2020-07-31T03:31:03,42.805,6.029,-0.067,0.004,-0.014,104.0,107.0,101.0,13.4,1505.3,325.4,-0.7,1.8,2470.432,13.33,0.067,273.4
2020-07-31T03:34:03,42.805,6.029,-0.067,0.01,0.015,105.0,106.0,101.0,13.4,1505.3,327.9,-0.7,1.8,2470.477,13.33,0.067,278.5
2020-07-31T03:37:03,42.805,6.029,-0.046,0.002,0.01,103.0,107.0,100.0,13.4,1505.3,323.5,-0.7,1.8,2470.471,13.33,0.046,272.5
2020-07-31T03:40:03,42.805,6.029,-0.029,0.007,0.013,103.0,107.0,101.0,13.4,1505.3,326.8,-0.7,1.8,2470.461,13.33,0.029,283.6
2020-07-31T03:43:03,42.805,6.029,-0.076,0.0,-0.017,105.0,107.0,100.0,13.4,1505.3,324.3,-0.7,1.8,2470.439,13.33,0.075,270.0
2020-07-31T03:46:03,42.805,6.029,-0.063,0.008,0.0,103.0,106.0,102.0,13.3,1505.3,323.3,-0.7,1.8,2470.438,13.33,0.063,277.2
2020-07-31T03:49:03,42.805,6.029,-0.068,0.0,0.023,103.0,108.0,101.0,13.3,1505.3,324.9,-0.7,1.8,2470.418,13.33,0.067,270.0
2020-07-31T03:52:03,42.805,6.029,-0.045,-0.013,0.009,103.0,107.0,101.0,13.4,1505.3,327.1,-0.7,1.8,2470.437,13.33,0.046,253.9
2020-07-31T03:55:03,42.805,6.029,-0.056,0.008,0.025,104.0,106.0,100.0,13.4,1505.3,323.7,-0.7,1.9,2470.434,13.33,0.056,278.1
2020-07-31T03:58:03,42.805,6.029,-0.059,0.002,-0.015,108.0,107.0,101.0,13.4,1505.3,326.4,-0.7,1.9,2470.415,13.33,0.059,271.9
2020-07-31T04:04:03,42.805,6.029,-0.084,0.011,-0.004,105.0,107.0,101.0,13.4,1505.3,327.6,-0.7,1.8,2470.497,13.31,0.084,277.5
2020-07-31T04:07:03,42.805,6.029,-0.058,0.011,-0.025,104.0,107.0,100.0,13.3,1505.3,322.9,-0.7,1.8,2470.478,13.31,0.059,280.7
2020-07-31T04:10:03,42.805,6.029,-0.071,0.013,0.008,105.0,108.0,103.0,13.4,1505.3,326.5,-0.7,1.8,2470.445,13.32,0.072,280.4
2020-07-31T04:13:03,42.805,6.029,-0.066,0.009,0.0,104.0,106.0,102.0,13.3,1505.3,324.7,-0.7,1.8,2470.453,13.32,0.066,277.8
2020-07-31T04:16:03,42.805,6.029,-0.046,0.032,0.017,103.0,108.0,102.0,13.4,1505.3,324.2,-0.7,1.8,2470.474,13.32,0.056,304.8
2020-07-31T04:19:03,42.805,6.029,-0.05,-0.002,0.019,104.0,107.0,102.0,13.4,1505.3,324.3,-0.7,1.8,2470.484,13.33,0.05,267.7
2020-07-31T04:22:03,42.805,6.029,-0.043,-0.008,-0.047,104.0,107.0,102.0,13.4,1505.3,324.7,-0.7,1.8,2470.428,13.33,0.043,259.5
2020-07-31T04:25:03,42.805,6.029,-0.062,0.007,-0.012,105.0,107.0,102.0,13.4,1505.3,324.4,-0.7,1.8,2470.476,13.33,0.062,276.4
2020-07-31T04:28:03,42.805,6.029,-0.037,-0.014,0.005,104.0,106.0,102.0,13.3,1505.3,325.1,-0.7,1.8,2470.45,13.33,0.039,249.3
2020-07-31T04:31:03,42.805,6.029,-0.061,0.0,-0.003,104.0,107.0,102.0,13.4,1505.3,326.6,-0.7,1.9,2470.458,13.33,0.06,270.0
2020-07-31T04:34:03,42.805,6.029,-0.067,0.012,-0.046,105.0,108.0,102.0,13.4,1505.3,326.8,-0.7,1.8,2470.414,13.33,0.068,280.2
2020-07-31T04:37:03,42.805,6.029,-0.06,0.001,-0.018,104.0,105.0,101.0,13.4,1505.3,324.2,-0.7,1.9,2470.427,13.33,0.06,271.0
2020-07-31T04:40:03,42.805,6.029,-0.044,-0.005,0.016,104.0,104.0,102.0,13.4,1505.3,326.2,-0.7,1.9,2470.399,13.33,0.044,263.5
2020-07-31T04:43:03,42.805,6.029,-0.055,0.002,0.008,104.0,106.0,101.0,13.3,1505.3,324.8,-0.7,1.8,2470.452,13.33,0.055,272.1
2020-07-31T04:46:03,42.805,6.029,-0.061,0.019,-0.034,104.0,106.0,101.0,13.4,1505.3,328.2,-0.7,1.8,2470.39,13.33,0.063,287.3
2020-07-31T04:49:03,42.805,6.029,-0.076,0.0,-0.027,104.0,108.0,102.0,13.4,1505.3,323.2,-0.7,1.8,2470.453,13.33,0.075,270.0
2020-07-31T04:52:03,42.805,6.029,-0.042,0.025,-0.005,104.0,107.0,101.0,13.3,1505.3,326.5,-0.7,1.8,2470.41,13.33,0.048,300.8
2020-07-31T04:55:03,42.805,6.029,-0.031,0.01,0.019,103.0,107.0,102.0,13.4,1505.3,325.7,-0.7,1.8,2470.464,13.33,0.032,287.9
2020-07-31T04:58:03,42.805,6.029,-0.043,0.016,-0.01,105.0,107.0,101.0,13.4,1505.3,325.7,-0.7,1.8,2470.435,13.33,0.045,290.4
2020-07-31T05:04:03,42.805,6.029,-0.053,0.028,0.013,104.0,107.0,101.0,13.4,1505.3,324.3,-0.7,1.8,2470.473,13.31,0.059,297.9
2020-07-31T05:07:03,42.805,6.029,-0.069,0.01,0.006,105.0,107.0,102.0,13.3,1505.3,324.3,-0.7,1.9,2470.444,13.31,0.069,278.2
2020-07-31T05:10:03,42.805,6.029,-0.054,0.034,-0.01,104.0,108.0,103.0,13.3,1505.3,327.5,-0.7,1.8,2470.437,13.32,0.063,302.2
2020-07-31T05:13:03,42.805,6.029,-0.038,-0.018,0.004,103.0,106.0,100.0,13.4,1505.3,325.6,-0.7,1.8,2470.45,13.32,0.042,244.7
2020-07-31T05:16:03,42.805,6.029,-0.045,0.0,0.018,103.0,108.0,102.0,13.4,1505.3,327.1,-0.7,1.8,2470.451,13.32,0.045,270.0
2020-07-31T05:19:03,42.805,6.029,-0.014,0.004,-0.001,104.0,108.0,102.0,13.4,1505.3,324.1,-0.7,1.8,2470.458,13.33,0.014,285.9
2020-07-31T05:22:03,42.805,6.029,-0.052,-0.005,0.019,105.0,106.0,101.0,13.4,1505.3,326.8,-0.7,1.8,2470.49,13.33,0.052,264.5
2020-07-31T05:25:03,42.805,6.029,-0.051,0.001,-0.019,104.0,106.0,102.0,13.4,1505.3,323.7,-0.7,1.8,2470.456,13.33,0.051,271.1
2020-07-31T05:28:03,42.805,6.029,-0.06,0.012,0.0,104.0,108.0,101.0,13.4,1505.3,324.4,-0.7,1.9,2470.418,13.33,0.061,281.3
2020-07-31T05:31:03,42.805,6.029,-0.042,0.007,-0.004,104.0,107.0,100.0,13.3,1505.3,323.4,-0.7,1.8,2470.465,13.33,0.042,279.5
2020-07-31T05:34:03,42.805,6.029,-0.064,0.022,-0.038,104.0,107.0,101.0,13.4,1505.3,325.6,-0.7,1.8,2470.43,13.33,0.067,289.0
2020-07-31T05:37:03,42.805,6.029,-0.071,0.025,0.015,104.0,108.0,101.0,13.3,1505.3,326.7,-0.7,1.8,2470.467,13.33,0.075,289.4
2020-07-31T05:40:03,42.805,6.029,-0.084,0.015,-0.045,105.0,108.0,101.0,13.4,1505.3,327.1,-0.7,1.8,2470.399,13.33,0.085,280.1
2020-07-31T05:43:03,42.805,6.029,-0.041,0.015,-0.01,103.0,107.0,101.0,13.4,1505.3,327.6,-0.7,1.8,2470.44,13.33,0.043,290.1
2020-07-31T05:46:03,42.805,6.029,-0.052,-0.005,-0.029,104.0,105.0,102.0,13.3,1505.3,325.6,-0.7,1.8,2470.434,13.33,0.052,264.5
2020-07-31T05:49:03,42.805,6.029,-0.045,0.009,-0.012,103.0,107.0,102.0,13.3,1505.3,323.7,-0.7,1.8,2470.443,13.33,0.045,281.3
2020-07-31T05:52:03,42.805,6.029,-0.03,0.014,0.005,103.0,107.0,102.0,13.4,1505.3,324.9,-0.7,1.8,2470.395,13.33,0.033,295.0
2020-07-31T05:55:03,42.805,6.029,-0.053,0.029,-0.014,105.0,108.0,101.0,13.3,1505.3,328.3,-0.7,1.8,2470.417,13.33,0.06,298.7
2020-07-31T05:58:03,42.805,6.029,-0.038,0.007,0.012,104.0,108.0,101.0,13.3,1505.3,323.9,-0.7,1.8,2470.448,13.33,0.038,280.4
2020-07-31T06:04:03,42.805,6.029,-0.048,0.02,-0.001,104.0,106.0,102.0,13.4,1505.3,327.2,-0.7,1.8,2470.464,13.31,0.052,292.6
2020-07-31T06:07:03,42.805,6.029,-0.061,0.011,-0.028,103.0,107.0,101.0,13.4,1505.3,322.9,-0.8,1.9,2470.434,13.31,0.061,280.2
2020-07-31T06:10:03,42.805,6.029,-0.034,0.001,-0.035,106.0,107.0,102.0,13.4,1505.3,325.8,-0.7,1.8,2470.437,13.32,0.034,271.7
2020-07-31T06:13:03,42.805,6.029,-0.046,0.0,-0.019,104.0,107.0,102.0,13.4,1505.3,326.5,-0.7,1.9,2470.444,13.32,0.046,270.0
2020-07-31T06:16:03,42.805,6.029,-0.057,0.001,0.001,103.0,107.0,101.0,13.4,1505.3,326.0,-0.7,1.8,2470.446,13.32,0.057,271.0
2020-07-31T06:19:03,42.805,6.029,-0.059,-0.015,-0.002,104.0,107.0,101.0,13.3,1505.3,324.8,-0.7,1.8,2470.405,13.33,0.06,255.7
2020-07-31T06:22:03,42.805,6.029,-0.031,-0.003,-0.004,105.0,106.0,101.0,13.4,1505.3,326.5,-0.7,1.8,2470.431,13.33,0.031,264.5
2020-07-31T06:25:03,42.805,6.029,-0.057,0.029,-0.02,105.0,105.0,100.0,13.4,1505.3,325.3,-0.7,1.8,2470.405,13.33,0.063,297.0
2020-07-31T06:28:03,42.805,6.029,-0.048,0.005,-0.011,104.0,105.0,102.0,13.3,1505.3,326.3,-0.7,1.8,2470.423,13.33,0.048,275.9
2020-07-31T06:31:03,42.805,6.029,-0.042,-0.008,-0.031,103.0,107.0,102.0,13.3,1505.3,326.0,-0.7,1.8,2470.428,13.33,0.042,259.2
2020-07-31T06:34:03,42.805,6.029,-0.06,0.015,-0.035,104.0,107.0,101.0,13.4,1505.3,327.5,-0.7,1.8,2470.397,13.33,0.061,284.0
2020-07-31T06:37:03,42.805,6.029,-0.063,0.012,-0.007,104.0,107.0,101.0,13.4,1505.3,323.2,-0.7,1.8,2470.381,13.33,0.064,280.8
2020-07-31T06:40:03,42.805,6.029,-0.048,0.008,0.039,105.0,106.0,101.0,13.4,1505.3,326.2,-0.7,1.9,2470.393,13.33,0.048,279.5
2020-07-31T06:43:03,42.805,6.029,-0.086,-0.011,-0.042,104.0,107.0,102.0,13.4,1505.3,324.7,-0.7,1.8,2470.412,13.33,0.086,262.7
2020-07-31T06:46:03,42.805,6.029,-0.059,0.014,-0.013,103.0,107.0,101.0,13.4,1505.3,326.4,-0.7,1.8,2470.376,13.33,0.06,283.3
2020-07-31T06:49:03,42.805,6.029,-0.059,0.01,-0.011,105.0,107.0,101.0,13.4,1505.3,327.7,-0.7,1.8,2470.401,13.33,0.059,279.6
2020-07-31T06:52:03,42.805,6.029,-0.032,0.025,0.006,104.0,107.0,102.0,13.4,1505.3,324.1,-0.7,1.8,2470.396,13.33,0.04,308.0
2020-07-31T06:55:03,42.805,6.029,-0.033,0.001,0.004,104.0,107.0,101.0,13.4,1505.3,324.4,-0.7,1.8,2470.377,13.33,0.033,271.7
2020-07-31T06:58:03,42.805,6.029,-0.019,0.021,-0.021,104.0,109.0,101.0,13.4,1505.3,324.7,-0.7,1.8,2470.362,13.33,0.028,317.9
2020-07-31T07:04:03,42.805,6.029,-0.074,0.003,-0.011,103.0,106.0,102.0,13.4,1505.3,327.5,-0.7,1.8,2470.452,13.31,0.074,272.3
2020-07-31T07:07:03,42.805,6.029,-0.061,0.026,0.003,104.0,106.0,102.0,13.4,1505.3,325.2,-0.7,1.8,2470.433,13.32,0.066,293.1
2020-07-31T07:10:03,42.805,6.029,-0.044,0.01,0.005,104.0,107.0,103.0,13.4,1505.3,323.9,-0.7,1.9,2470.389,13.32,0.045,282.8
2020-07-31T07:13:03,42.805,6.029,-0.043,-0.003,-0.026,104.0,108.0,101.0,13.4,1505.3,326.9,-0.7,1.9,2470.424,13.32,0.043,266.0
2020-07-31T07:16:03,42.805,6.029,-0.055,0.027,-0.021,104.0,108.0,101.0,13.3,1505.3,327.9,-0.7,1.8,2470.405,13.32,0.061,296.1
2020-07-31T07:19:03,42.805,6.029,-0.059,-0.001,0.0,102.0,107.0,101.0,13.3,1505.3,324.8,-0.7,1.8,2470.447,13.32,0.059,269.0
2020-07-31T07:22:03,42.805,6.029,-0.073,0.001,-0.042,104.0,106.0,104.0,13.4,1505.3,324.3,-0.7,1.9,2470.392,13.33,0.073,270.8
2020-07-31T07:25:03,42.805,6.029,-0.052,0.022,-0.016,104.0,106.0,100.0,13.4,1505.3,326.7,-0.7,1.8,2470.412,13.33,0.056,292.9
2020-07-31T07:28:03,42.805,6.029,-0.074,0.017,-0.015,103.0,106.0,101.0,13.4,1505.3,326.2,-0.7,1.9,2470.378,13.33,0.075,282.9
2020-07-31T07:31:03,42.805,6.029,-0.042,0.012,-0.032,103.0,107.0,102.0,13.4,1505.3,326.4,-0.7,1.8,2470.372,13.33,0.043,285.9
2020-07-31T07:34:03,42.805,6.029,-0.062,0.022,-0.013,102.0,108.0,102.0,13.4,1505.3,323.3,-0.7,1.8,2470.329,13.33,0.065,289.5
2020-07-31T07:37:03,42.805,6.029,-0.05,0.011,0.022,104.0,107.0,101.0,13.4,1505.3,325.4,-0.7,1.8,2470.367,13.33,0.051,282.4
2020-07-31T07:40:03,42.805,6.029,-0.055,0.015,-0.017,103.0,105.0,101.0,13.4,1505.3,326.7,-0.7,1.8,2470.361,13.33,0.057,285.3
2020-07-31T07:43:03,42.805,6.029,-0.036,0.014,-0.003,103.0,106.0,100.0,13.3,1505.3,327.6,-0.7,1.8,2470.397,13.33,0.038,291.2
2020-07-31T07:46:03,42.805,6.029,-0.05,0.025,0.008,104.0,107.0,101.0,13.4,1505.3,326.8,-0.7,1.9,2470.334,13.33,0.055,296.6
2020-07-31T07:49:03,42.805,6.029,-0.053,-0.006,-0.026,104.0,106.0,100.0,13.4,1505.3,328.2,-0.7,1.8,2470.382,13.33,0.053,263.5
2020-07-31T07:52:03,42.805,6.029,-0.081,0.009,-0.021,103.0,106.0,101.0,13.4,1505.3,323.8,-0.7,1.8,2470.362,13.33,0.081,276.3
2020-07-31T07:55:03,42.805,6.029,-0.079,0.02,-0.002,103.0,106.0,102.0,13.4,1505.3,325.3,-0.7,1.8,2470.355,13.33,0.081,284.2
2020-07-31T07:58:03,42.805,6.029,-0.043,0.021,0.007,104.0,106.0,100.0,13.4,1505.3,326.2,-0.7,1.8,2470.35,13.33,0.047,296.0
2020-07-31T08:04:03,42.805,6.029,-0.06,0.011,-0.011,103.0,105.0,101.0,13.4,1505.3,326.7,-0.7,1.9,2470.372,13.31,0.06,280.4
2020-07-31T08:07:03,42.805,6.029,-0.063,0.0,-0.057,103.0,106.0,101.0,13.4,1505.3,324.9,-0.7,1.9,2470.39,13.31,0.062,270.0
2020-07-31T08:10:03,42.805,6.029,-0.043,0.0,-0.017,103.0,106.0,101.0,13.4,1505.3,326.4,-0.7,1.8,2470.364,13.32,0.043,270.0
2020-07-31T08:13:03,42.805,6.029,-0.04,-0.005,-0.015,103.0,106.0,101.0,13.4,1505.3,323.5,-0.7,1.8,2470.373,13.32,0.04,262.9
2020-07-31T08:16:03,42.805,6.029,-0.021,-0.01,0.002,103.0,105.0,101.0,13.4,1505.3,326.9,-0.7,1.8,2470.35,13.33,0.023,244.5
2020-07-31T08:19:03,42.805,6.029,-0.076,-0.007,-0.024,103.0,106.0,100.0,13.3,1505.3,324.9,-0.7,1.8,2470.363,13.33,0.076,264.7
2020-07-31T08:22:03,42.805,6.029,-0.038,-0.011,-0.008,103.0,107.0,101.0,13.3,1505.3,326.4,-0.7,1.8,2470.359,13.33,0.039,253.9
2020-07-31T08:25:03,42.805,6.029,-0.026,0.003,-0.012,104.0,106.0,100.0,13.4,1505.3,327.7,-0.7,1.8,2470.385,13.33,0.026,276.6
2020-07-31T08:28:03,42.805,6.029,-0.025,0.014,0.017,103.0,106.0,100.0,13.4,1505.3,326.4,-0.7,1.8,2470.366,13.33,0.028,299.3
2020-07-31T08:31:03,42.805,6.029,-0.059,0.005,0.0,102.0,106.0,100.0,13.4,1505.3,326.4,-0.7,1.8,2470.389,13.33,0.059,274.8
2020-07-31T08:34:03,42.805,6.029,-0.045,0.01,-0.02,102.0,106.0,101.0,13.4,1505.3,326.6,-0.7,1.8,2470.339,13.33,0.046,282.5
2020-07-31T08:37:03,42.805,6.029,-0.029,-0.009,-0.016,102.0,105.0,101.0,13.4,1505.3,325.5,-0.7,1.8,2470.346,13.33,0.03,252.8
2020-07-31T08:40:03,42.805,6.029,-0.04,0.01,0.03,102.0,105.0,101.0,13.4,1505.3,325.4,-0.7,1.8,2470.368,13.33,0.041,284.0
2020-07-31T08:43:03,42.805,6.029,-0.038,-0.016,-0.043,102.0,106.0,100.0,13.4,1505.3,325.3,-0.7,1.8,2470.34,13.33,0.041,247.2
2020-07-31T08:46:03,42.805,6.029,-0.042,0.023,0.019,103.0,104.0,101.0,13.4,1505.3,326.8,-0.7,1.8,2470.333,13.33,0.047,298.7
2020-07-31T08:49:03,42.805,6.029,-0.04,0.012,0.023,104.0,106.0,101.0,13.4,1505.3,326.9,-0.7,1.8,2470.306,13.33,0.041,286.7
2020-07-31T08:52:03,42.805,6.029,-0.044,0.015,-0.011,102.0,107.0,100.0,13.3,1505.3,328.4,-0.7,1.8,2470.312,13.33,0.046,288.8
2020-07-31T08:55:03,42.805,6.029,-0.03,-0.003,0.002,103.0,106.0,100.0,13.4,1505.3,328.0,-0.7,1.9,2470.353,13.33,0.03,264.3
2020-07-31T08:58:03,42.805,6.029,-0.036,-0.002,-0.003,102.0,105.0,101.0,13.4,1505.3,327.7,-0.7,1.8,2470.3,13.33,0.036,266.8
2020-07-31T09:04:03,42.805,6.029,-0.043,0.011,0.007,103.0,106.0,99.0,13.4,1505.3,322.7,-0.7,1.8,2470.37,13.31,0.044,284.3
2020-07-31T09:07:03,42.805,6.029,-0.054,-0.006,-0.028,101.0,106.0,101.0,13.3,1505.3,326.7,-0.7,1.9,2470.344,13.32,0.054,263.7
2020-07-31T09:10:03,42.805,6.029,-0.024,-0.001,-0.014,102.0,105.0,100.0,13.4,1505.3,327.6,-0.7,1.8,2470.338,13.32,0.024,267.6
2020-07-31T09:13:03,42.805,6.029,-0.037,0.009,-0.004,104.0,104.0,100.0,13.3,1505.3,327.6,-0.7,1.8,2470.358,13.32,0.038,283.7
2020-07-31T09:16:03,42.805,6.029,-0.044,-0.009,0.002,103.0,105.0,100.0,13.4,1505.3,327.8,-0.7,1.8,2470.372,13.33,0.044,258.4
2020-07-31T09:19:03,42.805,6.029,-0.046,0.018,-0.013,102.0,104.0,101.0,13.3,1505.3,323.0,-0.7,1.8,2470.358,13.33,0.049,291.4
2020-07-31T09:22:03,42.805,6.029,-0.025,-0.01,-0.004,102.0,106.0,100.0,13.4,1505.3,326.3,-0.7,1.8,2470.329,13.33,0.026,248.2
2020-07-31T09:25:03,42.805,6.029,-0.032,0.022,0.057,103.0,105.0,100.0,13.3,1505.3,325.9,-0.7,1.8,2470.284,13.33,0.038,304.5
2020-07-31T09:28:03,42.805,6.029,-0.013,-0.003,0.001,103.0,106.0,101.0,13.3,1505.3,325.3,-0.7,1.8,2470.322,13.33,0.013,257.0
2020-07-31T09:31:03,42.805,6.029,-0.02,0.007,0.005,103.0,105.0,101.0,13.4,1505.3,324.5,-0.7,1.8,2470.327,13.33,0.021,289.3
2020-07-31T09:34:03,42.805,6.029,-0.027,0.009,0.006,103.0,104.0,100.0,13.3,1505.3,323.4,-0.7,1.9,2470.308,13.33,0.028,288.4
2020-07-31T09:37:03,42.805,6.029,-0.026,0.004,0.014,103.0,104.0,100.0,13.4,1505.3,323.4,-0.7,1.8,2470.328,13.33,0.026,278.7
2020-07-31T09:40:03,42.805,6.029,-0.043,0.008,-0.035,102.0,106.0,101.0,13.4,1505.3,327.9,-0.7,1.9,2470.307,13.33,0.043,280.5
2020-07-31T09:43:03,42.805,6.029,-0.045,0.021,0.002,102.0,104.0,101.0,13.3,1505.3,328.0,-0.8,1.8,2470.29,13.33,0.049,295.0
2020-07-31T09:46:03,42.805,6.029,-0.017,0.003,0.006,101.0,107.0,100.0,13.4,1505.3,327.8,-0.7,1.8,2470.322,13.33,0.017,280.0
2020-07-31T09:49:03,42.805,6.029,-0.061,0.001,-0.011,103.0,106.0,100.0,13.4,1505.3,325.2,-0.7,1.8,2470.324,13.33,0.061,270.9
2020-07-31T09:52:03,42.805,6.029,-0.06,0.015,0.009,103.0,105.0,102.0,13.4,1505.3,325.3,-0.7,1.8,2470.301,13.33,0.061,284.0
2020-07-31T09:55:03,42.805,6.029,-0.007,0.012,0.005,102.0,105.0,101.0,13.4,1505.3,323.1,-0.7,1.8,2470.271,13.33,0.013,329.7